Time,TemperatureF,DewpointF,PressureIn,WindDirection,WindDirectionDegrees,WindSpeedMPH,WindSpeedGustMPH,Humidity,HourlyPrecipIn,Conditions,Clouds,dailyrainin,SoftwareType,DateUTC
2013-03-25 00:01:00,53.0,46.0,29.95,WNW,286,0.0,1.0,76,0.00,,,0.00,,2013-03-25 07:01:00,
2013-03-25 00:12:00,53.0,46.0,29.95,WNW,286,0.0,1.0,76,0.00,,,0.00,,2013-03-25 07:12:00,
2013-03-25 00:21:00,52.0,45.0,29.95,WNW,286,0.0,1.0,76,0.00,,,0.00,,2013-03-25 07:21:00,
2013-03-25 00:31:00,50.0,44.0,29.96,SSE,165,0.0,1.0,81,0.00,,,0.00,,2013-03-25 07:31:00,
2013-03-25 00:42:00,50.0,44.0,29.96,SSE,165,0.0,1.0,81,0.00,,,0.00,,2013-03-25 07:42:00,
2013-03-25 00:52:00,50.0,45.0,29.96,SSE,165,0.0,1.0,83,0.00,,,0.00,,2013-03-25 07:52:00,
2013-03-25 01:02:00,50.0,45.0,29.96,SSE,165,0.0,0.0,82,0.00,,,0.00,,2013-03-25 08:02:00,
2013-03-25 01:11:00,50.0,45.0,29.96,SSE,165,0.0,0.0,82,0.00,,,0.00,,2013-03-25 08:11:00,
2013-03-25 01:22:00,49.0,44.0,29.96,SSE,165,0.0,0.0,82,0.00,,,0.00,,2013-03-25 08:22:00,
2013-03-25 01:32:00,47.0,43.0,29.96,SSE,165,0.0,1.0,86,0.00,,,0.00,,2013-03-25 08:32:00,
2013-03-25 01:42:00,47.0,43.0,29.96,SSE,165,0.0,1.0,86,0.00,,,0.00,,2013-03-25 08:42:00,
2013-03-25 01:52:00,47.0,43.0,29.96,SSE,165,0.0,1.0,87,0.00,,,0.00,,2013-03-25 08:52:00,
2013-03-25 02:02:00,46.0,43.0,29.96,SSE,165,0.0,1.0,88,0.00,,,0.00,,2013-03-25 09:02:00,
2013-03-25 02:11:00,46.0,43.0,29.96,SSE,165,0.0,1.0,88,0.00,,,0.00,,2013-03-25 09:11:00,
2013-03-25 02:22:00,46.0,43.0,29.96,SSE,165,0.0,1.0,89,0.00,,,0.00,,2013-03-25 09:22:00,
2013-03-25 02:32:00,45.0,42.0,29.96,SSE,165,0.0,0.0,89,0.00,,,0.00,,2013-03-25 09:32:00,
2013-03-25 02:42:00,45.0,42.0,29.96,SSE,165,0.0,0.0,89,0.00,,,0.00,,2013-03-25 09:42:00,
2013-03-25 02:52:00,45.0,42.0,29.96,SSE,165,0.0,0.0,89,0.00,,,0.00,,2013-03-25 09:52:00,
2013-03-25 03:02:00,46.0,42.0,29.96,SSE,165,0.0,1.0,86,0.00,,,0.00,,2013-03-25 10:02:00,
2013-03-25 03:12:00,46.0,42.0,29.96,SSE,165,0.0,1.0,86,0.00,,,0.00,,2013-03-25 10:12:00,
2013-03-25 03:22:00,47.0,42.0,29.96,SSE,162,0.0,2.0,82,0.00,,,0.00,,2013-03-25 10:22:00,
2013-03-25 03:32:00,45.0,41.0,29.96,SSE,162,0.0,1.0,85,0.00,,,0.00,,2013-03-25 10:32:00,
2013-03-25 03:42:00,45.0,41.0,29.96,SSE,162,0.0,1.0,85,0.00,,,0.00,,2013-03-25 10:42:00,
2013-03-25 03:53:00,44.0,40.0,29.96,SSE,161,0.0,2.0,87,0.00,,,0.00,,2013-03-25 10:53:00,
2013-03-25 04:02:00,44.0,42.0,29.95,SSE,161,0.0,0.0,91,0.00,,,0.00,,2013-03-25 11:02:00,
2013-03-25 04:12:00,44.0,41.0,29.95,SSE,161,0.0,1.0,90,0.00,,,0.00,,2013-03-25 11:12:00,
2013-03-25 04:22:00,44.0,41.0,29.95,SSE,161,0.0,1.0,90,0.00,,,0.00,,2013-03-25 11:22:00,
2013-03-25 04:31:00,43.0,40.0,29.95,SSE,161,0.0,0.0,89,0.00,,,0.00,,2013-03-25 11:31:00,
2013-03-25 04:42:00,43.0,40.0,29.95,SSE,161,0.0,0.0,89,0.00,,,0.00,,2013-03-25 11:42:00,
2013-03-25 04:52:00,43.0,41.0,29.95,SSE,161,0.0,0.0,91,0.00,,,0.00,,2013-03-25 11:52:00,
2013-03-25 05:02:00,43.0,40.0,29.96,SSE,161,0.0,1.0,90,0.00,,,0.00,,2013-03-25 12:02:00,
2013-03-25 05:11:00,43.0,40.0,29.96,SSE,161,0.0,1.0,90,0.00,,,0.00,,2013-03-25 12:11:00,
2013-03-25 05:22:00,43.0,40.0,29.96,SSE,161,0.0,1.0,90,0.00,,,0.00,,2013-03-25 12:22:00,
2013-03-25 05:31:00,42.0,40.0,29.96,SSE,161,0.0,0.0,91,0.00,,,0.00,,2013-03-25 12:31:00,
2013-03-25 05:53:00,42.0,40.0,29.96,SSE,161,0.0,0.0,92,0.00,,,0.00,,2013-03-25 12:53:00,
2013-03-25 06:02:00,42.0,40.0,29.96,SSE,161,0.0,0.0,91,0.00,,,0.00,,2013-03-25 13:02:00,
2013-03-25 06:12:00,42.0,40.0,29.96,SSE,161,0.0,0.0,91,0.00,,,0.00,,2013-03-25 13:12:00,
2013-03-25 06:22:00,42.0,40.0,29.96,SSE,161,0.0,0.0,93,0.00,,,0.00,,2013-03-25 13:22:00,
2013-03-25 06:32:00,42.0,40.0,29.96,SSE,161,0.0,0.0,92,0.00,,,0.00,,2013-03-25 13:32:00,
2013-03-25 06:42:00,42.0,40.0,29.96,SSE,161,0.0,0.0,92,0.00,,,0.00,,2013-03-25 13:42:00,
2013-03-25 06:52:00,43.0,41.0,29.96,West,273,1.0,3.0,94,0.00,,,0.00,,2013-03-25 13:52:00,
2013-03-25 07:02:00,45.0,42.0,29.96,West,259,2.0,4.0,90,0.00,,,0.00,,2013-03-25 14:02:00,
2013-03-25 07:12:00,45.0,42.0,29.96,West,259,2.0,4.0,90,0.00,,,0.00,,2013-03-25 14:12:00,
2013-03-25 07:22:00,47.0,44.0,29.96,West,259,2.0,6.0,88,0.00,,,0.00,,2013-03-25 14:22:00,
2013-03-25 07:32:00,47.0,43.0,29.96,West,269,1.0,4.0,86,0.00,,,0.00,,2013-03-25 14:32:00,
2013-03-25 07:42:00,47.0,43.0,29.96,West,269,1.0,4.0,86,0.00,,,0.00,,2013-03-25 14:42:00,
2013-03-25 07:52:00,47.0,43.0,29.97,WSW,249,0.0,3.0,85,0.00,,,0.00,,2013-03-25 14:52:00,
2013-03-25 08:02:00,46.0,43.0,29.97,WSW,252,2.0,5.0,88,0.00,,,0.00,,2013-03-25 15:02:00,
2013-03-25 08:12:00,46.0,43.0,29.97,WSW,252,2.0,5.0,88,0.00,,,0.00,,2013-03-25 15:12:00,
2013-03-25 08:21:00,48.0,44.0,29.97,WSW,246,2.0,7.0,86,0.00,,,0.00,,2013-03-25 15:21:00,
2013-03-25 08:32:00,49.0,45.0,29.97,West,265,2.0,6.0,85,0.00,,,0.00,,2013-03-25 15:32:00,
2013-03-25 08:42:00,49.0,45.0,29.97,West,265,2.0,6.0,85,0.00,,,0.00,,2013-03-25 15:42:00,
2013-03-25 08:52:00,50.0,46.0,29.97,WSW,243,2.0,8.0,85,0.00,,,0.00,,2013-03-25 15:52:00,
2013-03-25 09:02:00,51.0,47.0,29.98,SW,219,2.0,6.0,85,0.00,,,0.00,,2013-03-25 16:02:00,
2013-03-25 09:12:00,51.0,47.0,29.98,SW,219,2.0,6.0,85,0.00,,,0.00,,2013-03-25 16:12:00,
2013-03-25 09:22:00,51.0,47.0,29.98,SW,219,2.0,6.0,85,0.00,,,0.00,,2013-03-25 16:22:00,
2013-03-25 09:32:00,52.0,46.0,29.98,WSW,258,2.0,5.0,80,0.00,,,0.00,,2013-03-25 16:32:00,
2013-03-25 09:42:00,52.0,46.0,29.98,WSW,258,2.0,5.0,80,0.00,,,0.00,,2013-03-25 16:42:00,
2013-03-25 09:52:00,53.0,47.0,29.98,West,273,2.0,5.0,80,0.00,,,0.00,,2013-03-25 16:52:00,
2013-03-25 10:02:00,53.0,46.0,29.98,SW,225,3.0,4.0,78,0.00,,,0.00,,2013-03-25 17:02:00,
2013-03-25 10:11:00,53.0,46.0,29.98,SW,225,3.0,4.0,78,0.00,,,0.00,,2013-03-25 17:11:00,
2013-03-25 10:32:00,55.0,48.0,29.98,SW,226,1.0,4.0,78,0.00,,,0.00,,2013-03-25 17:32:00,
2013-03-25 10:42:00,55.0,48.0,29.98,SW,226,1.0,4.0,78,0.00,,,0.00,,2013-03-25 17:42:00,
2013-03-25 10:51:00,56.0,49.0,29.98,SW,231,3.0,6.0,76,0.00,,,0.00,,2013-03-25 17:51:00,
2013-03-25 11:03:00,57.0,48.0,29.98,SW,234,1.0,5.0,73,0.00,,,0.00,,2013-03-25 18:03:00,
2013-03-25 11:11:00,57.0,48.0,29.98,SW,234,1.0,5.0,73,0.00,,,0.00,,2013-03-25 18:11:00,
2013-03-25 11:22:00,59.0,50.0,29.97,SSE,150,0.0,3.0,73,0.00,,,0.00,,2013-03-25 18:22:00,
2013-03-25 11:32:00,60.0,50.0,29.98,SSE,165,2.0,6.0,69,0.00,,,0.00,,2013-03-25 18:32:00,
2013-03-25 11:42:00,60.0,50.0,29.98,SSE,165,2.0,6.0,69,0.00,,,0.00,,2013-03-25 18:42:00,
2013-03-25 11:52:00,61.0,50.0,29.98,SW,233,2.0,6.0,67,0.00,,,0.00,,2013-03-25 18:52:00,
2013-03-25 12:02:00,61.0,50.0,29.97,SSW,200,2.0,7.0,68,0.00,,,0.00,,2013-03-25 19:02:00,
2013-03-25 12:12:00,61.0,50.0,29.97,SSW,200,2.0,7.0,68,0.00,,,0.00,,2013-03-25 19:12:00,
2013-03-25 12:21:00,62.0,50.0,29.97,SW,219,5.0,7.0,64,0.00,,,0.00,,2013-03-25 19:21:00,
2013-03-25 12:32:00,63.0,51.0,29.97,South,188,5.0,8.0,65,0.00,,,0.00,,2013-03-25 19:32:00,
2013-03-25 12:42:00,63.0,51.0,29.97,South,188,5.0,8.0,65,0.00,,,0.00,,2013-03-25 19:42:00,
2013-03-25 12:52:00,63.0,51.0,29.97,WSW,252,4.0,8.0,66,0.00,,,0.00,,2013-03-25 19:52:00,
2013-03-25 13:01:00,63.0,51.0,29.97,WSW,252,4.0,8.0,66,0.00,,,0.00,,2013-03-25 20:01:00,
2013-03-25 13:11:00,63.0,51.0,29.97,WSW,252,4.0,8.0,66,0.00,,,0.00,,2013-03-25 20:11:00,
2013-03-25 13:22:00,64.0,49.0,29.96,WSW,248,3.0,7.0,59,0.00,,,0.00,,2013-03-25 20:22:00,
2013-03-25 13:31:00,64.0,49.0,29.96,WSW,248,3.0,7.0,59,0.00,,,0.00,,2013-03-25 20:31:00,
2013-03-25 13:42:00,64.0,49.0,29.96,WSW,248,3.0,7.0,59,0.00,,,0.00,,2013-03-25 20:42:00,
2013-03-25 13:52:00,65.0,50.0,29.96,WSW,251,3.0,9.0,59,0.00,,,0.00,,2013-03-25 20:52:00,
2013-03-25 14:02:00,65.0,50.0,29.95,West,270,5.0,9.0,58,0.00,,,0.00,,2013-03-25 21:02:00,
2013-03-25 14:12:00,65.0,50.0,29.95,West,270,5.0,9.0,58,0.00,,,0.00,,2013-03-25 21:12:00,
2013-03-25 14:21:00,66.0,49.0,29.95,WNW,290,4.0,9.0,54,0.00,,,0.00,,2013-03-25 21:21:00,
2013-03-25 14:32:00,65.0,51.0,29.95,West,259,2.0,7.0,60,0.00,,,0.00,,2013-03-25 21:32:00,
2013-03-25 14:42:00,65.0,51.0,29.95,West,259,2.0,7.0,60,0.00,,,0.00,,2013-03-25 21:42:00,
2013-03-25 14:52:00,65.0,49.0,29.94,WSW,242,5.0,9.0,56,0.00,,,0.00,,2013-03-25 21:52:00,
2013-03-25 15:03:00,64.0,48.0,29.93,WSW,242,3.0,8.0,56,0.00,,,0.00,,2013-03-25 22:03:00,
2013-03-25 15:12:00,64.0,48.0,29.93,WSW,242,3.0,8.0,56,0.00,,,0.00,,2013-03-25 22:12:00,
2013-03-25 15:22:00,64.0,47.0,29.93,SW,225,4.0,9.0,54,0.00,,,0.00,,2013-03-25 22:22:00,
2013-03-25 15:32:00,65.0,48.0,29.92,WSW,238,4.0,8.0,54,0.00,,,0.00,,2013-03-25 22:32:00,
2013-03-25 15:42:00,65.0,48.0,29.92,WSW,238,4.0,8.0,54,0.00,,,0.00,,2013-03-25 22:42:00,
2013-03-25 15:52:00,64.0,47.0,29.92,SW,231,3.0,7.0,53,0.00,,,0.00,,2013-03-25 22:52:00,
2013-03-25 16:02:00,66.0,47.0,29.91,SW,224,3.0,9.0,51,0.00,,,0.00,,2013-03-25 23:02:00,
2013-03-25 16:12:00,66.0,47.0,29.91,SW,224,3.0,9.0,51,0.00,,,0.00,,2013-03-25 23:12:00,
2013-03-25 16:22:00,65.0,47.0,29.91,WSW,244,4.0,7.0,52,0.00,,,0.00,,2013-03-25 23:22:00,
2013-03-25 16:32:00,67.0,48.0,29.91,WSW,244,3.0,7.0,50,0.00,,,0.00,,2013-03-25 23:32:00,
2013-03-25 16:42:00,67.0,48.0,29.91,WSW,244,3.0,7.0,50,0.00,,,0.00,,2013-03-25 23:42:00,
2013-03-25 16:52:00,67.0,47.0,29.90,SW,229,3.0,7.0,49,0.00,,,0.00,,2013-03-25 23:52:00,
2013-03-25 17:02:00,67.0,48.0,29.89,WSW,237,4.0,7.0,50,0.00,,,0.00,,2013-03-26 00:02:00,
2013-03-25 17:11:00,67.0,48.0,29.89,WSW,237,4.0,7.0,50,0.00,,,0.00,,2013-03-26 00:11:00,
2013-03-25 17:21:00,67.0,47.0,29.89,WNW,291,2.0,7.0,49,0.00,,,0.00,,2013-03-26 00:21:00,
2013-03-25 17:32:00,67.0,49.0,29.89,WSW,254,3.0,8.0,52,0.00,,,0.00,,2013-03-26 00:32:00,
2013-03-25 17:42:00,67.0,49.0,29.89,WSW,254,3.0,8.0,52,0.00,,,0.00,,2013-03-26 00:42:00,
2013-03-25 17:52:00,65.0,47.0,29.89,WSW,258,5.0,11.0,53,0.00,,,0.00,,2013-03-26 00:52:00,
2013-03-25 18:02:00,63.0,48.0,29.89,WNW,299,3.0,11.0,58,0.00,,,0.00,,2013-03-26 01:02:00,
2013-03-25 18:11:00,63.0,48.0,29.89,WNW,299,3.0,11.0,58,0.00,,,0.00,,2013-03-26 01:11:00,
2013-03-25 18:22:00,61.0,47.0,29.89,WNW,294,3.0,11.0,59,0.00,,,0.00,,2013-03-26 01:22:00,
2013-03-25 18:32:00,60.0,47.0,29.89,WSW,253,3.0,8.0,63,0.00,,,0.00,,2013-03-26 01:32:00,
2013-03-25 18:41:00,60.0,47.0,29.89,WSW,253,3.0,8.0,63,0.00,,,0.00,,2013-03-26 01:41:00,
2013-03-25 18:52:00,60.0,45.0,29.89,NW,311,2.0,8.0,58,0.00,,,0.00,,2013-03-26 01:52:00,
2013-03-25 19:02:00,59.0,44.0,29.90,WSW,255,3.0,7.0,57,0.00,,,0.00,,2013-03-26 02:02:00,
2013-03-25 19:11:00,59.0,44.0,29.90,WSW,255,3.0,7.0,57,0.00,,,0.00,,2013-03-26 02:11:00,
2013-03-25 19:22:00,58.0,42.0,29.90,West,273,3.0,10.0,56,0.00,,,0.00,,2013-03-26 02:22:00,
2013-03-25 19:32:00,57.0,42.0,29.89,West,274,4.0,12.0,57,0.00,,,0.00,,2013-03-26 02:32:00,
2013-03-25 19:42:00,57.0,42.0,29.89,West,274,4.0,12.0,57,0.00,,,0.00,,2013-03-26 02:42:00,
2013-03-25 19:52:00,56.0,43.0,29.90,West,275,3.0,9.0,61,0.00,,,0.00,,2013-03-26 02:52:00,
2013-03-25 20:01:00,55.0,43.0,29.90,WSW,252,7.0,15.0,65,0.00,,,0.00,,2013-03-26 03:01:00,
2013-03-25 20:11:00,55.0,43.0,29.90,WSW,252,7.0,15.0,65,0.00,,,0.00,,2013-03-26 03:11:00,
2013-03-25 20:21:00,54.0,44.0,29.91,WNW,284,6.0,15.0,68,0.00,,,0.00,,2013-03-26 03:21:00,
2013-03-25 20:33:00,53.0,43.0,29.91,NW,318,7.0,13.0,69,0.00,,,0.00,,2013-03-26 03:33:00,
2013-03-25 20:42:00,53.0,43.0,29.91,NW,318,7.0,13.0,69,0.00,,,0.00,,2013-03-26 03:42:00,
2013-03-25 20:53:00,53.0,43.0,29.91,West,279,7.0,15.0,68,0.00,,,0.00,,2013-03-26 03:53:00,
2013-03-25 21:03:00,52.0,42.0,29.92,West,267,8.0,15.0,68,0.00,,,0.00,,2013-03-26 04:03:00,
2013-03-25 21:12:00,52.0,42.0,29.92,West,267,8.0,15.0,68,0.00,,,0.00,,2013-03-26 04:12:00,
2013-03-25 21:22:00,52.0,42.0,29.92,West,267,8.0,15.0,68,0.00,,,0.00,,2013-03-26 04:22:00,
2013-03-25 21:32:00,51.0,42.0,29.93,WSW,252,6.0,12.0,70,0.00,,,0.00,,2013-03-26 04:32:00,
2013-03-25 21:42:00,51.0,42.0,29.93,WSW,252,6.0,12.0,70,0.00,,,0.00,,2013-03-26 04:42:00,
2013-03-25 21:52:00,51.0,42.0,29.93,WSW,252,6.0,12.0,70,0.00,,,0.00,,2013-03-26 04:52:00,
2013-03-25 22:02:00,51.0,41.0,29.94,WSW,258,5.0,11.0,69,0.00,,,0.00,,2013-03-26 05:02:00,
2013-03-25 22:11:00,51.0,41.0,29.94,WSW,258,5.0,11.0,69,0.00,,,0.00,,2013-03-26 05:11:00,
2013-03-25 22:21:00,51.0,41.0,29.93,SW,221,4.0,9.0,68,0.00,,,0.00,,2013-03-26 05:21:00,
2013-03-25 22:32:00,51.0,42.0,29.92,SW,221,2.0,5.0,70,0.00,,,0.00,,2013-03-26 05:32:00,
2013-03-25 22:42:00,51.0,42.0,29.92,SW,221,2.0,5.0,70,0.00,,,0.00,,2013-03-26 05:42:00,
2013-03-25 22:52:00,50.0,41.0,29.93,SE,129,1.0,4.0,72,0.00,,,0.00,,2013-03-26 05:52:00,
2013-03-25 23:01:00,49.0,42.0,29.95,WSW,254,0.0,2.0,76,0.00,,,0.00,,2013-03-26 06:01:00,
2013-03-25 23:12:00,49.0,42.0,29.95,WSW,254,0.0,2.0,76,0.00,,,0.00,,2013-03-26 06:12:00,
2013-03-25 23:21:00,48.0,41.0,29.96,South,173,0.0,4.0,78,0.00,,,0.00,,2013-03-26 06:21:00,
2013-03-25 23:32:00,48.0,42.0,29.96,South,184,1.0,5.0,81,0.00,,,0.00,,2013-03-26 06:32:00,
2013-03-25 23:42:00,48.0,42.0,29.96,South,184,1.0,5.0,81,0.00,,,0.00,,2013-03-26 06:42:00,
2013-03-25 23:52:00,48.0,42.0,29.95,SSW,199,0.0,3.0,81,0.00,,,0.00,,2013-03-26 06:52:00,